Back to catalog

COSMOS 1565

AliveMilitaryLEO
NORAD 15004·PAYLOAD·🇷🇺 Russia

Launched May 28, 1984 from Plesetsk Cosmodrome

Loading…

Next Passes (next 24 hours)

TLE

FreshSource: Space-Track

Epoch: Sep 14, 2026, 05:17 UTC

1 15004U 84052G   26257.22054994  .00000005  00000-0  12955-3 0  9996
2 15004  74.0164 345.9504 0042884  89.3489 300.0753 12.55464715938324

Track COSMOS 1565 in real time with AllMySat

Download on the App Store